sat.trackr.live / text

‹ back to catalog

O3B FM15

NORAD 43231 · 2018-024A

PAYLOAD ACTIVE UNKNOWN

§ Identity

Operator
Country
O3B
Launch date
2018-03-09
Launch site
FRGUI
Launch vehicle
Mass (kg)
RCS (m²)

Purposes: comms

External: N2YO · Heavens-Above · Gunter

§ Orbital elements

Epoch: 2026-09-19T05:47:19.344768Z

Period
287.93 min
Inclination
0.0563°
Eccentricity
0.0002575
Mean motion
5.00115925 rev/d
Perigee alt
8,062.2 km
Apogee alt
8,069.6 km
Semi-major
14,444.0 km
B*
0.0000e+0
RAAN
356.1499°
Arg perigee
183.8446°
Mean anomaly
180.0076°
Rev number
15,573

§ Raw data

O3B FM151 43231U 18024A   26262.24119612 -.00000027  00000+0  00000+0 0  99902 43231   0.0563 356.1499 0002575 183.8446 180.0076  5.00115925155730

JSON: /api/v1/satellites/43231 · /tle

For live sub-satellite position, see the globe view (requires WebGL).

§ Visibility from observer

Set your observer location to see the next 7 days of passes ≥ 10°. The values pass through the URL so the page stays shareable.

No JS? Fill the form by hand. The geolocation button needs JavaScript.